TimeCST,TemperatureF,Dew PointF,Humidity,Sea Level PressureIn,VisibilityMPH,Wind Direction,Wind SpeedMPH,Gust SpeedMPH,PrecipitationIn,Events,Conditions,WindDirDegrees,DateUTC
12:00 AM,73,73,100,29.97,7,SSW,2.3,,,,Haze,210,2013-01-03 06:00:00
12:00 AM,73.4,73.4,100,29.98,6.2,SSW,2.3,-,N/A,,Partly Cloudy,210,2013-01-03 06:00:00
1:00 AM,73.4,73.4,100,29.98,6.2,SW,3.5,-,N/A,,Partly Cloudy,220,2013-01-03 07:00:00
2:00 AM,73.4,73.4,100,29.98,6.2,SW,3.5,-,N/A,,Partly Cloudy,220,2013-01-03 08:00:00
3:00 AM,71.6,71.6,100,29.95,6.2,SSW,2.3,-,N/A,,Scattered Clouds,210,2013-01-03 09:00:00
4:00 AM,71.6,71.6,100,29.95,6.2,SSW,2.3,-,N/A,,Mostly Cloudy,210,2013-01-03 10:00:00
5:00 AM,71.6,71.6,100,29.98,6.2,South,2.3,-,N/A,,Mostly Cloudy,190,2013-01-03 11:00:00
6:00 AM,71,71,100,29.97,7,SSW,2.3,,,,Haze,200,2013-01-03 12:00:00
6:00 AM,71.6,71.6,100,29.98,6.2,SSW,2.3,-,N/A,,Scattered Clouds,200,2013-01-03 12:00:00
7:00 AM,71.6,71.6,100,29.98,6.2,WSW,3.5,-,N/A,,Scattered Clouds,250,2013-01-03 13:00:00
8:00 AM,73.4,71.6,94,29.98,6.2,SW,3.5,-,N/A,,Scattered Clouds,220,2013-01-03 14:00:00
9:00 AM,77,74,86,30.02,6,South,3.5,,,,Haze,170,2013-01-03 15:00:00
9:00 AM,77.0,73.4,89,30.04,6.2,South,3.5,-,N/A,,Scattered Clouds,170,2013-01-03 15:00:00
10:00 AM,80.6,73.4,79,30.01,6.2,SW,4.6,-,N/A,,Partly Cloudy,220,2013-01-03 16:00:00
11:00 AM,84.2,73.4,70,30.01,6.2,WSW,3.5,-,N/A,,Partly Cloudy,250,2013-01-03 17:00:00
12:00 PM,85,75,65,29.97,6,Calm,Calm,,,,Haze,,2013-01-03 18:00:00
12:00 PM,86.0,75.2,70,29.98,6.2,Calm,Calm,-,N/A,,Scattered Clouds,0,2013-01-03 18:00:00
1:00 PM,84.2,75.2,74,29.95,6.2,North,5.8,-,N/A,,Scattered Clouds,350,2013-01-03 19:00:00
2:00 PM,86.0,75.2,70,29.92,6.2,North,10.4,-,N/A,,Scattered Clouds,350,2013-01-03 20:00:00
3:00 PM,86,77,68,29.89,6,North,9.2,,,,Haze,0,2013-01-03 21:00:00
3:00 PM,86.0,75.2,70,29.89,6.2,North,9.2,-,N/A,,Partly Cloudy,360,2013-01-03 21:00:00
4:00 PM,86.0,75.2,70,29.89,-9999.0,North,11.5,-,N/A,,Partly Cloudy,360,2013-01-03 22:00:00
5:00 PM,84.2,75.2,74,29.92,6.2,North,12.7,-,N/A,,Mostly Cloudy,10,2013-01-03 23:00:00
6:00 PM,81,75,78,29.95,6,North,8.1,,,,Scattered Clouds,10,2013-01-04 00:00:00
6:00 PM,80.6,75.2,84,29.95,6.2,North,8.1,-,N/A,,Mostly Cloudy,10,2013-01-04 00:00:00
7:00 PM,77.0,75.2,94,29.98,6.2,NNE,5.8,-,N/A,,Mostly Cloudy,30,2013-01-04 01:00:00
8:00 PM,77.0,77.0,100,29.98,6.2,ENE,4.6,-,N/A,,Mostly Cloudy,60,2013-01-04 02:00:00
9:00 PM,77.0,77.0,100,30.01,6.2,NE,2.3,-,N/A,,Mostly Cloudy,40,2013-01-04 03:00:00
10:00 PM,75.2,75.2,100,30.01,6.2,WSW,3.5,-,N/A,,Partly Cloudy,240,2013-01-04 04:00:00
11:00 PM,75.2,75.2,100,30.01,6.2,North,2.3,-,N/A,,Scattered Clouds,360,2013-01-04 05:00:00